Flag for Uruguay Weather past 2 weeks in Maldonado, Uruguay

Now
45 °F

Sunny.


Feels Like: 41 °F
Forecast: 34 / 57 °F
Wind: 7 mph from Northeast

Location: Capitan Corbeta

Current Time: Jul 5, 2015 at 12:03:00 PM

Latest Report: Jul 5, 2015 at 11:00 AM


Visibility: 10 mi

Pressure: 30.24 "Hg

Humidity: 87%

Dew point: 41 °F

Location of MaldonadoLocation

Historic Weather in Maldonado — Graph

°F

Maldonado temperature yesterday

Maximum temperature yesterday: 52 °F (at 10:00 AM)
Minimum temperature yesterday: 37 °F (at 11:00 PM)
Average temperature yesterday: 48 °F

Past Weeks' High & Low Weather Summary

 TemperatureHumidityPressure
High73 °F (Jun 27, 1:00 PM)100% (Jun 24, 2:00 AM)30.51 "Hg (Jun 24, 2:00 AM)
Low30 °F (Jun 24, 6:00 AM)39% (Jun 20, 3:00 PM)29.74 "Hg (Jun 30, 6:00 AM)
Average52 °F76%30.15 "Hg
* Reported Jun 20 11:00 AM — Jul 5 11:00 AM, Maldonado, Weather by CustomWeather, © 2015

Note: Actual official high and low records may vary slightly from our data, if they occured in-between our weather recording intervals... More about our weather records

Advertising

Maldonado weather history for previous 24 hours

 ConditionsComfort  
Time TempWeatherWind HumidityBarometerVisibility
11:00 AM
Sun, Jul 5
45 °FSunny.7 mph87%30.24 "Hg10 mi
10:00 AM39 °FSunny.5 mph87%30.24 "Hg10 mi
9:00 AM36 °FChilly.No wind100%30.24 "HgN/A
8:00 AM32 °FFog.No wind100%30.21 "Hg1 mi
12:00 AM36 °FFog.No wind100%30.24 "Hg0 mi
11:00 PM
Sat, Jul 4
37 °FClear.No wind87%30.24 "Hg10 mi
10:00 PM41 °FClear.No wind93%30.27 "Hg10 mi
9:00 PM43 °FClear.3 mph87%30.27 "Hg10 mi
8:00 PM43 °FClear.No wind76%30.24 "Hg10 mi
7:00 PM46 °FClear.6 mph71%30.24 "Hg10 mi
6:00 PM48 °FPassing clouds.7 mph71%30.24 "HgN/A
5:00 PM50 °FPassing clouds.7 mph62%30.24 "HgN/A
4:00 PM52 °FScattered clouds.9 mph62%30.21 "HgN/A
3:00 PM52 °FScattered clouds.7 mph62%30.21 "HgN/A
2:00 PM52 °FPartly sunny.12 mph62%30.21 "HgN/A
12:00 PM52 °FPartly sunny.13 mph62%30.21 "HgN/A
Weather by CustomWeather, © 2015

See weather overviewHow to use our weather pages